AirNav   Everest Fuels
 
 436 users online  

GA99 Miami Valley Farm Airport
Fort Valley, Georgia, USA

GOING TO FORT VALLEY?


FAA INFORMATION EFFECTIVE 10 SEPTEMBER 2020

Location

FAA Identifier: GA99
Lat/Long: 32-32-55.5310N 083-48-06.6670W
32-32.925517N 083-48.111117W
32.5487586,-83.8018519
(estimated)
Elevation: 468 ft. / 142.6 m (surveyed)
Variation: 02W (1985)
From city: 4 miles E of FORT VALLEY, GA
Time zone: UTC -4 (UTC -5 during Standard Time)
Zip code: 31030

Airport Operations

Airport use: Private use. Permission required prior to landing
Activation date: 07/1974
Control tower: no
ARTCC: ATLANTA CENTER
FSS: MACON FLIGHT SERVICE STATION
Attendance: UNATNDD
Wind indicator: yes
Segmented circle: no

Airport Communications

WX AWOS-3 at PXE (2.9 nm SE): 123.825 (478-987-8768)
WX ASOS at MCN (12 nm NE): 120.775 (478-784-8825)

Nearby radio navigation aids

VOR radial/distance  VOR name  Freq  Var
MCNr221/11.6MACON VORTAC114.2001E
VNAr322/25.4VIENNA VORTAC116.5001E

 
NDB name  Hdg/Dist  Freq  Var  ID
MONTEZUMA048/15.042604WIZS .. --.. ...
LINDBERGH039/27.324204WLKG .-.. -.- --.
CONEY011/33.240006WOHY --- .... -.--

Airport Services

Airframe service: NONE
Powerplant service: NONE

Runway Information

Runway 18/36

Dimensions: 3600 x 75 ft. / 1097 x 23 m
Surface: turf
Operational restrictions: 600' AGL - WEST PATTERN.
RUNWAY 18  RUNWAY 36
Traffic pattern: rightleft
Obstructions: 50 ft. pline, 50 ft. from runwaynone

Airport Ownership and Management from official FAA records

Ownership: Privately-owned
Owner: W. H. DAVIDSON, III
10151 MIAMI VALLEY RD.
FT VALLEY, GA 31030
Phone 478-825-4038
Manager: W. H. DAVIDSON, III
10151 MIAMI VALLEY RD.
FORT VALLEY, GA 31030
Phone 912-825-2355

Airport Operational Statistics

Aircraft based on the field: 1
Single engine airplanes: 1
    

Additional Remarks

USE AT YOUR OWN RISK
FOR CD CTC ATLANTA APCH AT 678-364-6132, WHEN APCH CLSD CTC ATLANTA ARTCC AT 770-210-7692.

Instrument Procedures

There are no published instrument procedures at GA99.

Some nearby airports with instrument procedures:

KPXE - Perry-Houston County Airport (3 nm SE)
KMCN - Middle Georgia Regional Airport (12 nm NE)
KWRB - Robins Air Force Base (12 nm NE)
53A - Dr. C P Savage Sr. Airport (18 nm SW)
KMAC - Macon Downtown Airport (20 nm NE)
 
Loc | Ops | Rwys | IFR | FBO | Links
Com | Nav | Svcs | Stats | Notes
Area around GA99 (Miami Valley Farm Airport)
 
Road maps at: MapQuest Bing Google
 
Aerial photo
No photo
 
Sectional chart

 
Airport distance calculator
Flying to Miami Valley Farm Airport? Find the distance to fly.

From to GA99

Sunrise and sunset
Times for 29-Sep-2020
 Local
(UTC-4)
 Zulu
(UTC)
Morning civil twilight07:0511:05
Sunrise07:3011:30
Sunset19:2123:21
Evening civil twilight19:4523:45

Current date and time
Zulu (UTC)  29-Sep-2020 09:29:16
Local (UTC-4)  29-Sep-2020 05:29:16
 
METAR
KPXE 
3nm SE 
290915Z AUTO 26003KT 10SM BKN009 20/19 A2984 RMK AO2 T02010195
KMCN 
11nm NE 
290853Z AUTO 27005KT 10SM CLR 21/19 A2983 RMK AO2 SLP097 T02060189 50001
KWRB 
12nm E 
290856Z 27003KT 10SM BKN060 22/20 A2982 RMK AO2A SLP098 T02170196 58001
TAF
KMCN 
11nm NE 
290520Z 2906/3006 21004KT P6SM VCSH SCT040 FM290900 27005KT 4SM SHRA BR BKN005 OVC030 FM291500 30008KT 6SM BR VCSH SCT007 BKN012 FM291900 29012KT P6SM -SHRA BKN035 BKN080 FM300200 27006KT P6SM BKN250
KWRB 
12nm E 
290500Z 2905/3011 VRB06KT 9999 SCT100 BKN250 QNH2980INS BECMG 2907/2908 VRB06KT 9999 VCSH OVC010 QNH2979INS BECMG 2911/2912 28009KT 9999 NSW BKN020 OVC200 QNH2978INS BECMG 2915/2916 30010KT 9999 VCSH BKN035 OVC200 QNH2981INS TEMPO 2920/2924 8000 -SHRA BECMG 2923/2924 32010KT 9999 NSW SCT200 QNH2987INS TX21/2905Z TN16/3004Z
NOTAMs
Click for the latest NOTAMs
NOTAMs are issued by the DoD/FAA and will open in a separate window not controlled by AirNav.

 

 
 

Would you like to see your business listed on this page?

 If your business provides an interesting product or service to pilots, flight crews, aircraft, or users of the Miami Valley Farm Airport, you should consider listing it here.  To start the listing process, click on the button below
 
Add a business
 

Other Pages about Miami Valley Farm Airport

Update a link
 
Copyright © AirNav, LLC. All rights reserved. Privacy Policy  Contact